sat.trackr.live / text

‹ back to catalog

STARLINK-36154

NORAD 66939 · 2025-286Q

PAYLOAD ACTIVE UNKNOWN

§ Identity

Operator
Country
US
Launch date
2025-12-07
Launch site
AFWTR
Launch vehicle
Mass (kg)
RCS (m²)

Purposes: comms

External: N2YO · Heavens-Above · Gunter

§ Orbital elements

Epoch: 2026-09-20T06:21:52.830720Z

Period
93.85 min
Inclination
53.1592°
Eccentricity
0.0001101
Mean motion
15.34409563 rev/d
Perigee alt
461.9 km
Apogee alt
463.4 km
Semi-major
6,840.8 km
B*
3.5588e-4
RAAN
170.6621°
Arg perigee
86.0840°
Mean anomaly
274.0289°
Rev number
4,526

§ Raw data

STARLINK-361541 66939U 25286Q   26263.26519480  .00011670  00000+0  35588-3 0  99962 66939  53.1592 170.6621 0001101  86.0840 274.0289 15.34409563 45261

JSON: /api/v1/satellites/66939 · /tle

For live sub-satellite position, see the globe view (requires WebGL).

§ Visibility from observer

Set your observer location to see the next 7 days of passes ≥ 10°. The values pass through the URL so the page stays shareable.

No JS? Fill the form by hand. The geolocation button needs JavaScript.